Meteo Giornale » Osservazioni meteo Filippine » Subic Bay Weather Station

ore: 02:00 - Osservazioni Meteo Subic Bay Weather Station
Lat. 14° 48' N Lon. 120° 16' E Alt. 18 metri s.l.m.

molto_nuvoloso

28 °C

Molto Nuvoloso

Temp. 24 Ore

25 °C

30 °C

Sud-Ovest

24 Km/h

Dew point 26 °C

Umidità 88 %

Visibilità  9 Km

Il sole sorge alle ore 05:46

Il sole tramonta alle ore 18:10

Data e Ora Cielo e Fenomeni T °C DP °C Um. % Pres. hPa Vis. km Vento km/h
Oggi h: 02:00 molto_nuvoloso Molto Nuvoloso 28 26 88 1008 9 SO 24
Oggi h: 01:00 molto_nuvoloso Molto Nuvoloso 28 26 88 1009 9 SO 20.3
Oggi h: 00:00 molto_nuvoloso Molto Nuvoloso 29 26 83 1009 9 O/SO 24
Ieri h: 23:00 molto_nuvoloso Molto Nuvoloso 29 26 83 1010 9 SO 20.3
Ieri h: 22:00 molto_nuvoloso Molto Nuvoloso 29 26 83 1010 9 SO 18.5
Ieri h: 21:00 molto_nuvoloso Molto Nuvoloso 29 26 83 1010 9 S/SO 33.3
Ieri h: 20:00 molto_nuvoloso Molto Nuvoloso 29 26 83 1009 8 SO 22.2
Ieri h: 19:00 molto_nuvoloso Molto Nuvoloso 29 27 89 1009 8 SO 27.8
Ieri h: 18:00 coperto Coperto 29 27 89 1008 8 O/SO 22.2
Ieri h: 17:00 molto_nuvoloso Molto Nuvoloso 29 26 83 1008 8 O/SO 24
Ieri h: 16:00 coperto Coperto 29 26 83 1008 8 SO 24
Ieri h: 15:00 molto_nuvoloso Molto Nuvoloso 29 27 89 1008 9 O/SO 24
Ieri h: 14:00 coperto Coperto 29 27 89 1008 9 O/SO 24
Ieri h: 13:00 molto_nuvoloso Molto Nuvoloso 30 27 84 1008 9 SO 25.9
Ieri h: 12:00 molto_nuvoloso Molto Nuvoloso 30 27 84 1009 9 O/SO 22.2
Ieri h: 11:00 molto_nuvoloso Molto Nuvoloso 29 27 89 1010 9 O/SO 24
Ieri h: 10:17 nuvoloso_temporali Temporale 28 25 83 1010 5 O/SO 25.9
Ieri h: 10:06 coperto_temporali Temporale 29 26 83 1010 7 O/SO 25.9
Ieri h: 10:00 molto_nuvoloso Molto Nuvoloso 30 26 79 1010 8 SO 24
Ieri h: 09:00 molto_nuvoloso Molto Nuvoloso 29 26 83 1010 9 O/SO 25.9
Ieri h: 08:00 molto_nuvoloso Molto Nuvoloso 29 27 89 1010 7 O/SO 22.2
Ieri h: 07:00 molto_nuvoloso Molto Nuvoloso 28 26 88 1009 8 S/SO 29.6
Ieri h: 06:00 molto_nuvoloso Molto Nuvoloso 28 26 88 1009 7 S/SO 25.9
Ieri h: 05:00 coperto_pioggia Pioggia 28 26 88 1009 6 SO 24
Ieri h: 04:00 coperto_pioggia Pioggia 28 26 88 1009 6 SO 20.3
Ieri h: 03:00 coperto_pioggia Pioggia 25 24 94 1009 5 O/SO 25.9